Weather History for KAHQ - October, 2012

Change the Weather History Date:

Sunday, October 21, 2012

  Actual Average Record
Temperature  
Mean Temperature 60 °F -  
Max Temperature 80 °F 64 °F 83 °F (1975)
Min Temperature 41 °F 38 °F 18 °F (1989)
Degree Days  
Heating Degree Days 4    
Growing Degree Days 10 (Base 50)    
Moisture  
Dew Point 50 °F    
Average Humidity 74    
Maximum Humidity 91    
Minimum Humidity 46    
Precipitation  
Precipitation 0.00 in - - ()
Sea Level Pressure  
Sea Level Pressure 29.73 in    
Wind  
Wind Speed 7 mph (SE)    
Max Wind Speed 13 mph    
Max Gust Speed 23 mph    
Visibility 10 miles    
Events      
Averages and records for this station are not official NWS values.
T = Trace of Precipitation, MM = Missing Value Source: NWS Daily Summary

Daily Weather History Graph

Daily Weather History Graph

Search for Another Location

Airport or City:

Trip Planner

Search our weather history database for the weather conditions in past years. The results will help you decide how hot, cold, wet, or windy it might be!

Date:

Astronomy

Oct. 21, 2012 Rise Set
Actual Time 7:45 AM CDT 6:35 PM CDT
Civil Twilight 7:17 AM CDT 7:03 PM CDT
Nautical Twilight 6:45 AM CDT 7:35 PM CDT
Astronomical Twilight 6:13 AM CDT 8:07 PM CDT
Moon 2:08 PM CDT (10/21) No Moon Set
Length of Visible Light 11h 46m
Length of Day
10h 50m
Waxing Crescent, 45% of the Moon is Illuminated
Oct 21
Waxing Crescent
Oct 21
First Quarter
Oct 29
Full
Nov 6
Last Quarter
Nov 13
New

Hourly Weather History & Observations

Time (CDT) Temp. Windchill Dew Point Humidity Pressure Visibility Wind Dir Wind Speed Gust Speed Precip Events Conditions
12:15 AM 44.6 °F 40.7 °F 39.4 °F 82% 29.72 in 10.0 mi SE 6.9 mph - N/A   Clear
12:35 AM 45.7 °F 42.7 °F 40.1 °F 81% 29.72 in 10.0 mi SE 5.8 mph - N/A   Clear
12:55 AM 44.6 °F 40.7 °F 39.2 °F 81% 29.72 in 10.0 mi SE 6.9 mph - N/A   Clear
1:15 AM 44.8 °F 41.0 °F 39.9 °F 83% 29.72 in 10.0 mi SE 6.9 mph - N/A   Clear
1:35 AM 45.1 °F 40.8 °F 39.6 °F 81% 29.71 in 10.0 mi SE 8.1 mph - N/A   Clear
1:55 AM 44.2 °F 40.3 °F 39.6 °F 84% 29.71 in 10.0 mi SE 6.9 mph - N/A   Clear
2:15 AM 44.1 °F 40.1 °F 39.4 °F 84% 29.70 in 10.0 mi SE 6.9 mph - N/A   Clear
2:35 AM 44.4 °F 40.0 °F 39.9 °F 84% 29.70 in 10.0 mi SE 8.1 mph - N/A   Clear
2:55 AM 44.6 °F 40.2 °F 40.1 °F 84% 29.70 in 10.0 mi SE 8.1 mph - N/A   Clear
3:15 AM 43.5 °F 40.1 °F 39.6 °F 86% 29.70 in 10.0 mi SE 5.8 mph - N/A   Clear
3:35 AM 42.8 °F 40.1 °F 39.2 °F 87% 29.70 in 10.0 mi SE 4.6 mph - N/A   Clear
3:55 AM 42.6 °F 38.4 °F 39.4 °F 88% 29.70 in 10.0 mi SE 6.9 mph - N/A   Clear
4:15 AM 41.9 °F 36.9 °F 38.7 °F 88% 29.70 in 10.0 mi SE 8.1 mph - N/A   Clear
4:35 AM 42.8 °F 37.0 °F 39.4 °F 88% 29.70 in 10.0 mi SE 10.4 mph - N/A   Clear
4:55 AM 43.7 °F 38.6 °F 40.1 °F 87% 29.70 in 10.0 mi SE 9.2 mph - N/A   Clear
5:15 AM 43.7 °F 39.1 °F 40.3 °F 88% 29.70 in 10.0 mi SE 8.1 mph - N/A   Clear
5:35 AM 42.8 °F 38.6 °F 39.6 °F 88% 29.70 in 10.0 mi SSE 6.9 mph - N/A   Clear
5:55 AM 43.0 °F 39.5 °F 39.7 °F 88% 29.71 in 10.0 mi SSE 5.8 mph - N/A   Clear
6:15 AM 43.7 °F 40.3 °F 40.1 °F 87% 29.71 in 10.0 mi SSE 5.8 mph - N/A   Clear
6:35 AM 42.8 °F 38.6 °F 39.6 °F 88% 29.71 in 10.0 mi SSE 6.9 mph - N/A   Clear
6:55 AM 42.6 °F 38.4 °F 39.4 °F 88% 29.71 in 10.0 mi SSE 6.9 mph - N/A   Clear
7:15 AM 42.4 °F 38.1 °F 39.4 °F 89% 29.71 in 10.0 mi SSE 6.9 mph - N/A   Clear
7:35 AM 42.8 °F - 39.7 °F 89% 29.73 in 10.0 mi Calm Calm - N/A   Clear
7:55 AM 41.7 °F 39.8 °F 39.2 °F 91% 29.73 in 10.0 mi SE 3.5 mph - N/A   Clear
8:15 AM 41.7 °F 39.8 °F 39.2 °F 91% 29.74 in 10.0 mi SSE 3.5 mph - N/A   Clear
8:35 AM 43.2 °F 40.5 °F 40.5 °F 90% 29.75 in 10.0 mi SSE 4.6 mph - N/A   Clear
8:55 AM 45.5 °F - 42.4 °F 89% 29.76 in 10.0 mi Calm Calm - N/A   Clear
9:15 AM 48.4 °F - 44.2 °F 86% 29.77 in 10.0 mi SE 4.6 mph - N/A   Clear
9:35 AM 50.0 °F - 45.3 °F 84% 29.76 in 10.0 mi SSE 4.6 mph - N/A   Clear
9:55 AM 52.0 °F - 46.0 °F 80% 29.77 in 10.0 mi SSE 8.1 mph - N/A   Clear
10:15 AM 53.8 °F - 46.6 °F 77% 29.78 in 10.0 mi South 5.8 mph - N/A   Clear
10:35 AM 56.5 °F - 48.0 °F 73% 29.78 in 10.0 mi South 9.2 mph - N/A   Clear
10:55 AM 59.9 °F - 49.6 °F 69% 29.77 in 10.0 mi South 9.2 mph - N/A   Clear
11:15 AM 62.4 °F - 50.4 °F 65% 29.77 in 10.0 mi South 9.2 mph - N/A   Clear
11:35 AM 64.9 °F - 51.4 °F 62% 29.76 in 10.0 mi South 8.1 mph - N/A   Clear
12:15 PM 68.9 °F - 52.5 °F 56% 29.77 in 10.0 mi South 5.8 mph - N/A   Clear
12:35 PM 70.7 °F - 53.2 °F 54% 29.76 in 10.0 mi South 5.8 mph - N/A   Clear
12:55 PM 72.5 °F - 54.3 °F 53% 29.75 in 10.0 mi South 4.6 mph - N/A   Clear
1:15 PM 73.6 °F - 55.4 °F 53% 29.74 in 10.0 mi SE 6.9 mph - N/A   Clear
1:35 PM 75.4 °F - 56.5 °F 52% 29.73 in 10.0 mi SE 8.1 mph - N/A   Clear
1:55 PM 76.6 °F - 57.7 °F 52% 29.72 in 10.0 mi SE 5.8 mph - N/A   Clear
2:15 PM 77.0 °F - 57.7 °F 51% 29.72 in 10.0 mi SE 6.9 mph - N/A   Clear
2:35 PM 78.4 °F - 58.5 °F 50% 29.71 in 10.0 mi SE 10.4 mph - N/A   Clear
2:55 PM 78.4 °F - 58.6 °F 50% 29.71 in 10.0 mi East 5.8 mph - N/A   Clear
3:15 PM 79.7 °F - 58.6 °F 48% 29.70 in 10.0 mi ESE 9.2 mph - N/A   Clear
3:35 PM 80.1 °F - 57.6 °F 46% 29.70 in 10.0 mi SE 12.7 mph 23.0 mph N/A   Clear
3:55 PM 79.7 °F - 57.0 °F 46% 29.71 in 10.0 mi SSE 12.7 mph - N/A   Clear
4:15 PM 79.7 °F - 58.1 °F 47% 29.71 in 10.0 mi SSE 10.4 mph - N/A   Clear
4:35 PM 79.5 °F - 57.9 °F 47% 29.70 in 10.0 mi SSE 9.2 mph - N/A   Clear
4:55 PM 79.5 °F - 58.5 °F 48% 29.70 in 10.0 mi SE 6.9 mph - N/A   Clear
5:15 PM 79.0 °F - 58.5 °F 49% 29.70 in 10.0 mi East 8.1 mph - N/A   Clear
5:35 PM 77.7 °F - 58.6 °F 52% 29.71 in 10.0 mi East 8.1 mph - N/A   Scattered Clouds
5:55 PM 75.7 °F - 58.8 °F 56% 29.71 in 10.0 mi East 6.9 mph - N/A   Mostly Cloudy
6:15 PM 74.3 °F - 58.8 °F 58% 29.72 in 10.0 mi East 6.9 mph - N/A   Overcast
6:35 PM 72.9 °F - 59.0 °F 62% 29.72 in 10.0 mi ENE 6.9 mph - N/A   Overcast
6:55 PM 72.5 °F - 59.0 °F 62% 29.72 in 10.0 mi ENE 6.9 mph - N/A   Overcast
7:15 PM 70.9 °F - 59.0 °F 66% 29.73 in 10.0 mi ENE 6.9 mph - N/A   Overcast
7:35 PM 72.5 °F - 61.0 °F 67% 29.74 in 10.0 mi SE 9.2 mph - N/A   Overcast
7:55 PM 71.1 °F - 61.7 °F 72% 29.75 in 10.0 mi SE 10.4 mph - N/A   Mostly Cloudy
8:15 PM 69.8 °F - 61.7 °F 75% 29.76 in 10.0 mi SE 6.9 mph - N/A   Overcast
8:35 PM 68.4 °F - 61.3 °F 78% 29.76 in 10.0 mi Calm Calm - N/A   Overcast
8:55 PM 67.3 °F - 60.8 °F 80% 29.76 in 10.0 mi Calm Calm - N/A   Overcast
9:15 PM 64.8 °F - 59.9 °F 84% 29.77 in 10.0 mi ESE 4.6 mph - N/A   Scattered Clouds
9:35 PM 62.8 °F - 58.6 °F 86% 29.78 in 7.0 mi ESE 5.8 mph - N/A   Scattered Clouds
9:55 PM 61.7 °F - 58.1 °F 88% 29.78 in 7.0 mi ESE 4.6 mph - N/A   Scattered Clouds
10:15 PM 61.3 °F - 58.3 °F 90% 29.78 in 7.0 mi ESE 4.6 mph - N/A   Clear
10:35 PM 60.1 °F - 57.2 °F 90% 29.78 in 5.0 mi NNW 4.6 mph - N/A   Scattered Clouds
10:55 PM 63.1 °F - 59.2 °F 87% 29.78 in 7.0 mi North 4.6 mph - N/A   Scattered Clouds
11:15 PM 62.1 °F - 58.6 °F 89% 29.78 in 7.0 mi North 4.6 mph - N/A   Mostly Cloudy
11:35 PM 62.8 °F - 59.4 °F 89% 29.78 in 7.0 mi NNW 6.9 mph - N/A   Overcast
11:55 PM 62.6 °F - 54.9 °F 76% 29.79 in 10.0 mi NNW 8.1 mph - N/A   Overcast